THOR ABLESTAR DEB, 1943

Orbit data source: Space-Track

THOR ABLESTAR DEB, 1943 is space debris in LEO originally from a launch on Thu, 29 Jun 1961 UTC launched from the Air Force Eastern Test Range (AFETR). Debris objects in space refer to the collection of defunct objects orbiting the Earth. Examples of debris include non-operational satellites, rocket bodies, and fragments generated from explosions, collisions, or faulty payload assembly.

Loading next visibility...
Identifier
1943, 1961-015HT
Orbit
LEO
Country
Flag of USUS
Related business
Manufacturer
Unknown
Mission
Spacecraft
Bus & Motor
Unknown
Mass
Unknown
Launch date (UTC)
1961-06-29 (64 years ago)
Launch vehicle
Unknown
Launch site
Air Force Eastern Test Range (AFETR)
Object type
Payload
Rocket body
Debris
Shape & HBR
Unknown shape, 0.1 m
Radar Cross Section
Small (<0.1 m²)

Expand to show TLE details & history
Last TLE update: 1 day ago

TLE from 1 day ago
0 THOR ABLESTAR DEB
1 01943U 61015HT  25300.39518690  .00001942  00000-0  81912-3 0  9991
2 01943  66.8576  56.1445 0047490 112.0468 248.5684 14.27126575310931
Epoch: 2025-10-27T09:29Z
TLE epoch observation values (Epoch: 2025-10-27T09:29:04.148Z)
Latitude
0.00001°
Longitude
-122.12043°
Altitude
816.068 km
Speed
7.439 km/s
True Right ascension
03h 44m 34s
True Declination
0° 00' 00"
Sunlit
Object was in full shadow at epoch
Visualization orbit readout
Latitude
Unknown
Longitude
Unknown
Altitude
Unknown
Speed
Unknown
Apparent Right ascension
Unknown
Apparent Declination
Unknown
Sunlit
N/A
Visualization observer readout
Local Sidereal Time
09:58:57
Azimuth
Unknown
Elevation
Unknown
Doppler factor
Unknown
Orbital elements
Apogee altitude
833.798 km
Perigee altitude
765.623 km
Semi-major axis
7,177.847 km
Eccentricity
0.00475
Inclination
66.8576°
RAAN
56.1445°
Arg. of periapsis
112.0468°
True anomaly
248.06294°
Mean anomaly
248.5684°
Eccentric anomaly
248.31556°
Mean motion
3.56904 °/min
Orbital period
100.87 mins
BSTAR
0.00081912
Loading maneuver chart data...
Computing Atmospheric mass density...

Documentation

Showing up to 5 results
|